McComb, MS

11:11 PM CDT on May 23, 2017 (GMT -0500)
McComb-Pike County-Lewis

Weather History for KMCB - January, 2015

Change the Weather History Date:

Thursday, January 15, 2015

  Actual Average Record
Temperature  
Mean Temperature 40 °F -  
Max Temperature 44 °F 58 °F 76 °F (1950)
Min Temperature 34 °F 34 °F 15 °F (1979)
Degree Days  
Heating Degree Days 25    
Moisture  
Dew Point 36 °F    
Average Humidity 91    
Maximum Humidity 97    
Minimum Humidity 71    
Precipitation  
Precipitation 0.39 in - - ()
Sea Level Pressure  
Sea Level Pressure 30.22 in    
Wind  
Wind Speed 4 mph (North)    
Max Wind Speed 12 mph    
Max Gust Speed -    
Visibility 6 miles    
Events Rain    
Averages and records for this station are not official NWS values.
T = Trace of Precipitation, MM = Missing Value Source: NWS Daily Summary

Daily Weather History Graph

Daily Weather History Graph

Search for Another Location

Airport or City:

Trip Planner

Search our weather history database for the weather conditions in past years. The results will help you decide how hot, cold, wet, or windy it might be!

Date:

Astronomy

Jan. 15, 2015 Rise Set
Actual Time 7:00 AM CST 5:21 PM CST
Civil Twilight 6:34 AM CST 5:47 PM CST
Nautical Twilight 6:05 AM CST 6:17 PM CST
Astronomical Twilight 5:35 AM CST 6:46 PM CST
Moon 2:01 AM CST (1/15) 1:08 PM CST (1/15)
Length of Visible Light 11h 13m
Length of Day
10h 20m
Waning Crescent, 27% of the Moon is Illuminated
Jan 15
Waning Crescent
Jan 20
New
Jan 26
First Quarter
Feb 3
Full
Feb 11
Last Quarter

Hourly Weather History & Observations

Time (CST) Temp. Windchill Dew Point Humidity Pressure Visibility Wind Dir Wind Speed Gust Speed Precip Events Conditions
12:38 AM 37.9 °F - 34.0 °F 86% 30.21 in 8.0 mi Calm Calm - 0.00 in   Overcast
12:53 AM 37.9 °F - 34.0 °F 86% 30.21 in 8.0 mi Calm Calm - 0.00 in   Overcast
1:53 AM 37.9 °F 34.4 °F 35.1 °F 89% 30.20 in 9.0 mi ESE 4.6 mph - 0.00 in Rain Light Rain
2:19 AM 37.0 °F 34.5 °F 36.0 °F 96% 30.21 in 2.5 mi Variable 3.5 mph - 0.10 in Rain Rain
2:21 AM 37.0 °F 34.5 °F 36.0 °F 96% 30.20 in 3.0 mi Variable 3.5 mph - 0.10 in Rain Rain
2:53 AM 37.0 °F 32.4 °F 36.0 °F 96% 30.21 in 5.0 mi NNW 5.8 mph - 0.14 in Rain Light Rain
3:12 AM 37.0 °F 31.0 °F 35.1 °F 93% 30.21 in 2.5 mi NNW 8.1 mph - 0.04 in Rain Rain
3:20 AM 37.0 °F 34.5 °F 36.0 °F 96% 30.21 in 4.0 mi Variable 3.5 mph - 0.04 in Rain Light Rain
3:53 AM 37.0 °F 32.4 °F 36.0 °F 96% 30.21 in 3.0 mi NW 5.8 mph - 0.08 in Rain Rain
4:00 AM 37.0 °F - 36.0 °F 96% 30.20 in 2.0 mi Calm Calm - 0.03 in Rain Heavy Rain
4:14 AM 37.9 °F 34.4 °F 36.0 °F 93% 30.19 in 4.0 mi North 4.6 mph - 0.04 in Rain Light Rain
4:25 AM 37.9 °F 34.4 °F 36.0 °F 93% 30.20 in 4.0 mi North 4.6 mph - 0.05 in Rain Light Rain
4:53 AM 37.9 °F 35.5 °F 36.0 °F 93% 30.19 in 2.5 mi East 3.5 mph - 0.09 in Rain Light Rain
4:57 AM 37.0 °F 34.5 °F 36.0 °F 96% 30.18 in 3.0 mi Variable 3.5 mph - 0.01 in Rain Light Rain
5:30 AM 37.0 °F - 36.0 °F 96% 30.17 in 6.0 mi Calm Calm - 0.02 in   Overcast
5:53 AM 37.9 °F 35.5 °F 36.0 °F 93% 30.17 in 4.0 mi East 3.5 mph - 0.02 in   Overcast
6:53 AM 37.9 °F 34.4 °F 36.0 °F 93% 30.22 in 6.0 mi NNW 4.6 mph - 0.01 in Rain Light Rain
7:32 AM 37.9 °F 35.5 °F 37.0 °F 97% 30.21 in 5.0 mi NNE 3.5 mph - 0.03 in Rain Light Rain
7:53 AM 39.0 °F 33.4 °F 37.0 °F 93% 30.24 in 6.0 mi NW 8.1 mph - 0.03 in Rain Light Rain
8:42 AM 37.9 °F 33.5 °F 37.0 °F 97% 30.25 in 4.0 mi NNW 5.8 mph - 0.01 in Rain Light Rain
8:53 AM 39.0 °F 36.8 °F 37.0 °F 93% 30.24 in 5.0 mi Variable 3.5 mph - 0.01 in Rain Light Rain
9:05 AM 39.0 °F - 37.0 °F 93% 30.24 in 5.0 mi Calm Calm - 0.00 in Rain Light Rain
9:53 AM 39.0 °F 34.0 °F 37.0 °F 93% 30.27 in 7.0 mi North 6.9 mph - 0.01 in   Overcast
10:53 AM 39.0 °F 34.8 °F 37.0 °F 93% 30.27 in 4.0 mi North 5.8 mph - N/A   Overcast
11:53 AM 39.0 °F - 37.0 °F 93% 30.23 in 7.0 mi North - - N/A   Overcast
12:53 PM 39.9 °F 35.1 °F 37.0 °F 89% 30.20 in 7.0 mi North 6.9 mph - N/A   Overcast
1:53 PM 41.0 °F 35.2 °F 37.0 °F 86% 30.18 in 7.0 mi North 9.2 mph - N/A   Overcast
2:29 PM 41.0 °F 34.3 °F 37.0 °F 86% 30.18 in 9.0 mi North 11.5 mph - N/A   Overcast
2:53 PM 42.1 °F 36.1 °F 37.0 °F 82% 30.18 in 10.0 mi North 10.4 mph - N/A   Mostly Cloudy
3:53 PM 44.1 °F 38.1 °F 35.1 °F 71% 30.20 in 10.0 mi North 11.5 mph - N/A   Scattered Clouds
4:53 PM 43.0 °F 40.3 °F 35.1 °F 74% 30.21 in 10.0 mi North 4.6 mph - N/A   Clear
5:53 PM 39.9 °F 36.7 °F 35.1 °F 83% 30.23 in 10.0 mi North 4.6 mph - N/A   Clear
6:53 PM 37.0 °F 32.4 °F 34.0 °F 89% 30.25 in 10.0 mi North 5.8 mph - N/A   Clear
7:53 PM 37.0 °F 33.3 °F 34.0 °F 89% 30.26 in 9.0 mi North 4.6 mph - N/A   Clear
8:53 PM 37.0 °F 33.3 °F 34.0 °F 89% 30.27 in 10.0 mi North 4.6 mph - N/A   Clear
9:53 PM 36.0 °F 31.1 °F 33.1 °F 89% 30.27 in 10.0 mi North 5.8 mph - N/A   Clear
10:53 PM 36.0 °F 32.1 °F 32.0 °F 86% 30.27 in 10.0 mi North 4.6 mph - N/A   Clear
11:53 PM 34.0 °F 28.8 °F 30.9 °F 89% 30.27 in 9.0 mi North 5.8 mph - N/A   Clear